Location: Maiden
(35.5760°N, 81.2120°W)
Time: 02:29:11
(UTC-05:00)

Envisat - Visible Passes

Search period start: 21 February 2018 00:00
Search period end: 03 March 2018 00:00
Orbit: 764 x 766 km, 98.2° (Epoch: 20 February)

Date Brightness Start Highest point End Pass type
(mag) Time Alt. Az. Time Alt. Az. Time Alt. Az.
21 Feb 4.2 18:54:51 10° ESE 18:58:31 21° ENE 19:02:12 10° NNE visible
21 Feb 4.2 20:32:28 10° SSW 20:37:13 40° W 20:41:59 10° NNW visible
22 Feb 2.8 19:55:23 10° SSE 20:00:27 85° ENE 20:05:34 10° N visible
23 Feb 3.5 19:19:17 10° SE 19:23:53 36° ENE 19:28:30 10° N visible
23 Feb 5.2 20:59:02 10° SW 21:02:56 22° W 21:06:52 10° NW visible
24 Feb 4.5 18:44:27 10° ESE 18:47:31 16° ENE 18:50:34 10° NNE visible
24 Feb 3.7 20:21:07 10° S 20:26:03 52° W 20:31:01 10° NNW visible
25 Feb 2.9 19:44:20 10° SSE 19:49:21 66° ENE 19:54:23 10° N visible
25 Feb 5.9 21:27:00 10° WSW 21:28:45 12° W 21:30:32 10° WNW visible
26 Feb 3.8 19:08:33 10° SE 19:12:50 28° ENE 19:17:08 10° NNE visible
26 Feb 4.8 20:47:24 10° SSW 20:51:44 28° W 20:56:06 10° NW visible
27 Feb 3.2 20:09:52 10° S 20:14:54 68° W 20:19:58 10° NNW visible
28 Feb 3.1 19:33:22 10° SSE 19:38:15 51° ENE 19:43:10 10° N visible
28 Feb 5.7 21:14:33 10° SW 21:17:31 15° W 21:20:29 10° WNW visible
01 Mar 4.1 18:57:55 10° ESE 19:01:47 23° ENE 19:05:40 10° NNE visible
01 Mar 4.4 20:35:54 10° SSW 20:40:33 36° W 20:45:14 10° NNW visible
02 Mar 2.9 19:58:42 10° SSE 20:03:46 87° WSW 20:08:52 10° NNW visible
